�������l�o���
Date,Time,MP-1(��Sv/h),MP-2(��Sv/h),MP-3(��Sv/h),MP-4(��Sv/h),MP-5(��Sv/h),MP-6(��Sv/h),MP-7(��Sv/h),����,����(m/s),���J
2019/06/10,00:00,0.197,0.180,0.296,0.277,0.272,0.151,0.095,�k�k��,6.7,�L
2019/06/10,00:10,0.198,0.182,0.296,0.278,0.274,0.151,0.095,�k�k��,5.2,�L
2019/06/10,00:20,0.198,0.182,0.296,0.276,0.272,0.152,0.095,�k�k��,5.7,�L
2019/06/10,00:30,0.198,0.182,0.295,0.277,0.273,0.153,0.096,�k�k��,7.4,�L
2019/06/10,00:40,0.196,0.181,0.296,0.276,0.274,0.153,0.096,�k,6.4,�L
2019/06/10,00:50,0.197,0.182,0.292,0.276,0.272,0.152,0.097,�k�k��,8.1,�L
2019/06/10,01:00,0.197,0.181,0.294,0.277,0.274,0.153,0.097,�k�k��,8.4,�L
2019/06/10,01:10,0.196,0.180,0.292,0.273,0.272,0.152,0.096,�k�k��,7.6,�L
2019/06/10,01:20,0.197,0.182,0.291,0.276,0.273,0.153,0.096,�k�k��,7.6,�L
2019/06/10,01:30,0.195,0.181,0.291,0.273,0.273,0.151,0.096,�k��,7.0,�L
2019/06/10,01:40,0.195,0.180,0.289,0.273,0.270,0.150,0.095,�k�k��,7.3,�L
2019/06/10,01:50,0.194,0.179,0.289,0.272,0.271,0.149,0.095,�k�k��,7.0,�L
2019/06/10,02:00,0.193,0.177,0.289,0.272,0.268,0.148,0.094,�k��,7.5,�L
2019/06/10,02:10,0.192,0.177,0.288,0.271,0.271,0.148,0.094,�k��,5.9,�L
2019/06/10,02:20,0.192,0.177,0.289,0.270,0.269,0.148,0.094,�k�k��,6.7,�L
2019/06/10,02:30,0.193,0.177,0.287,0.270,0.270,0.149,0.095,�k�k��,6.4,�L
2019/06/10,02:40,0.191,0.178,0.288,0.270,0.269,0.146,0.094,�k�k��,7.1,��
2019/06/10,02:50,0.191,0.174,0.286,0.267,0.269,0.147,0.093,�k�k��,6.8,�L
2019/06/10,03:00,0.192,0.177,0.286,0.270,0.270,0.146,0.092,�k�k��,5.9,�L
2019/06/10,03:10,0.189,0.175,0.286,0.268,0.267,0.146,0.092,�k�k��,6.7,�L
2019/06/10,03:20,0.191,0.176,0.285,0.269,0.270,0.146,0.091,�k�k��,7.0,�L
2019/06/10,03:30,0.189,0.176,0.285,0.269,0.269,0.146,0.093,�k��,7.0,�L
2019/06/10,03:40,0.191,0.175,0.286,0.267,0.267,0.145,0.092,�k��,6.6,�L
2019/06/10,03:50,0.190,0.177,0.284,0.269,0.267,0.145,0.092,�k�k��,6.6,�L
2019/06/10,04:00,0.188,0.175,0.286,0.267,0.268,0.145,0.092,�k��,7.0,�L
2019/06/10,04:10,0.190,0.173,0.284,0.267,0.267,0.144,0.091,�k�k��,6.2,�L
2019/06/10,04:20,0.189,0.175,0.285,0.267,0.266,0.143,0.091,�k�k��,6.5,�L
2019/06/10,04:30,0.190,0.173,0.284,0.267,0.268,0.145,0.091,�k�k��,6.8,�L
2019/06/10,04:40,0.188,0.174,0.283,0.267,0.266,0.143,0.090,�k�k��,6.7,�L
2019/06/10,04:50,0.189,0.173,0.284,0.266,0.266,0.144,0.091,�k�k��,7.0,�L
2019/06/10,05:00,0.188,0.173,0.282,0.267,0.266,0.143,0.090,�k�k��,6.4,�L
2019/06/10,05:10,0.188,0.173,0.284,0.265,0.265,0.143,0.090,�k�k��,6.2,��
2019/06/10,05:20,0.188,0.173,0.283,0.267,0.268,0.143,0.089,�k�k��,6.5,��
2019/06/10,05:30,0.187,0.173,0.283,0.265,0.264,0.142,0.090,�k��,6.6,�L
2019/06/10,05:40,0.188,0.172,0.284,0.265,0.266,0.143,0.089,�k�k��,7.0,��
2019/06/10,05:50,0.187,0.172,0.283,0.266,0.265,0.142,0.088,�k�k��,6.7,�L
2019/06/10,06:00,0.187,0.173,0.283,0.265,0.265,0.143,0.088,�k�k��,5.6,�L
2019/06/10,06:10,0.187,0.172,0.283,0.268,0.264,0.141,0.089,�k�k��,5.4,�L
2019/06/10,06:20,0.187,0.173,0.284,0.264,0.265,0.143,0.089,�k��,7.6,�L
2019/06/10,06:30,0.187,0.173,0.282,0.267,0.266,0.143,0.091,�k��,7.0,�L
2019/06/10,06:40,0.188,0.172,0.283,0.266,0.264,0.143,0.090,�k�k��,8.4,��
2019/06/10,06:50,0.188,0.173,0.283,0.265,0.267,0.143,0.090,�k��,8.1,�L
2019/06/10,07:00,0.187,0.173,0.283,0.267,0.265,0.143,0.089,�k�k��,7.4,�L
2019/06/10,07:10,0.187,0.172,0.283,0.265,0.265,0.143,0.089,�k�k��,7.0,�L
2019/06/10,07:20,0.187,0.171,0.284,0.267,0.264,0.143,0.089,�k�k��,7.1,�L
2019/06/10,07:30,0.186,0.172,0.282,0.266,0.264,0.142,0.088,�k�k��,7.8,�L
2019/06/10,07:40,0.188,0.173,0.284,0.266,0.266,0.142,0.089,�k�k��,8.1,�L
2019/06/10,07:50,0.185,0.171,0.282,0.266,0.265,0.142,0.088,�k�k��,7.0,�L
2019/06/10,08:00,0.187,0.172,0.284,0.265,0.266,0.142,0.089,�k�k��,6.3,�L
2019/06/10,08:10,0.188,0.173,0.283,0.267,0.264,0.143,0.088,�k��,8.1,�L
2019/06/10,08:20,0.186,0.172,0.283,0.265,0.266,0.142,0.089,�k�k��,7.9,�L
2019/06/10,08:30,0.188,0.172,0.285,0.268,0.265,0.144,0.089,�k��,7.8,��
2019/06/10,08:40,0.186,0.172,0.282,0.266,0.265,0.142,0.088,�k�k��,8.1,��
2019/06/10,08:50,0.187,0.172,0.284,0.265,0.266,0.142,0.088,�k�k��,7.3,��
2019/06/10,09:00,0.187,0.172,0.283,0.266,0.263,0.142,0.088,�k�k��,7.5,�L
2019/06/10,09:10,0.188,0.171,0.283,0.265,0.267,0.142,0.088,�k�k��,8.2,��
2019/06/10,09:20,0.188,0.173,0.284,0.268,0.264,0.142,0.088,�k�k��,7.1,�L
2019/06/10,09:30,0.188,0.172,0.283,0.265,0.266,0.142,0.088,�k�k��,8.5,��
2019/06/10,09:40,0.187,0.173,0.284,0.267,0.263,0.142,0.088,�k�k��,6.3,�L
2019/06/10,09:50,0.187,0.173,0.283,0.266,0.264,0.142,0.088,�k�k��,7.7,�L
2019/06/10,10:00,0.187,0.172,0.283,0.265,0.265,0.143,0.089,�k�k��,8.1,�L
2019/06/10,10:10,0.187,0.173,0.284,0.267,0.265,0.142,0.089,�k�k��,8.6,�L
2019/06/10,10:20,0.186,0.172,0.283,0.266,0.264,0.143,0.089,�k�k��,9.0,�L
2019/06/10,10:30,0.187,0.173,0.284,0.267,0.264,0.142,0.089,�k�k��,8.1,�L
2019/06/10,10:40,0.186,0.172,0.283,0.265,0.265,0.142,0.089,�k�k��,7.1,�L
2019/06/10,10:50,0.188,0.173,0.283,0.266,0.264,0.143,0.088,�k�k��,7.9,�L
2019/06/10,11:00,0.188,0.172,0.285,0.266,0.266,0.144,0.088,�k�k��,7.4,�L
2019/06/10,11:10,0.188,0.173,0.283,0.267,0.264,0.142,0.089,�k�k��,8.4,�L
2019/06/10,11:20,0.188,0.173,0.282,0.265,0.266,0.143,0.088,�k�k��,8.4,�L
2019/06/10,11:30,0.188,0.172,0.282,0.267,0.264,0.142,0.089,�k�k��,7.6,�L
2019/06/10,11:40,0.187,0.172,0.285,0.265,0.266,0.142,0.088,�k�k��,8.2,�L
2019/06/10,11:50,0.187,0.172,0.281,0.264,0.265,0.142,0.088,�k�k��,7.3,�L
2019/06/10,12:00,0.187,0.172,0.283,0.266,0.265,0.142,0.088,�k�k��,6.6,��
2019/06/10,12:10,0.187,0.171,0.283,0.265,0.265,0.142,0.088,�k�k��,7.3,��
2019/06/10,12:20,0.186,0.172,0.281,0.266,0.265,0.142,0.087,�k�k��,7.3,�L
2019/06/10,12:30,0.186,0.171,0.283,0.265,0.264,0.141,0.088,�k�k��,6.6,�L
2019/06/10,12:40,0.187,0.170,0.283,0.265,0.265,0.142,0.088,�k�k��,6.7,�L
2019/06/10,12:50,0.187,0.171,0.282,0.263,0.263,0.141,0.088,�k,5.6,�L
2019/06/10,13:00,0.186,0.171,0.281,0.266,0.265,0.142,0.087,�k,7.8,�L
2019/06/10,13:10,0.187,0.172,0.283,0.264,0.266,0.143,0.089,�k,6.2,�L
2019/06/10,13:20,0.189,0.172,0.283,0.267,0.264,0.144,0.089,�k,6.7,�L
2019/06/10,13:30,0.188,0.172,0.283,0.265,0.265,0.144,0.091,�k,6.8,�L
2019/06/10,13:40,0.188,0.172,0.283,0.266,0.266,0.144,0.090,�k,6.8,�L
2019/06/10,13:50,0.187,0.174,0.286,0.266,0.265,0.144,0.090,�k,7.4,�L
2019/06/10,14:00,0.188,0.172,0.283,0.266,0.266,0.144,0.090,�k,7.4,�L
2019/06/10,14:10,0.188,0.174,0.285,0.264,0.267,0.143,0.090,�k,8.7,�L
2019/06/10,14:20,0.189,0.173,0.284,0.266,0.266,0.144,0.090,�k,8.7,�L
2019/06/10,14:30,0.188,0.173,0.284,0.265,0.267,0.143,0.090,�k,7.3,�L
2019/06/10,14:40,0.189,0.173,0.283,0.267,0.265,0.144,0.089,�k,7.0,�L
2019/06/10,14:50,0.188,0.172,0.283,0.266,0.266,0.142,0.090,�k,6.2,�L
2019/06/10,15:00,0.188,0.174,0.286,0.265,0.264,0.144,0.090,�k�k��,6.3,�L
2019/06/10,15:10,0.190,0.174,0.284,0.266,0.267,0.145,0.092,�k,7.4,�L
2019/06/10,15:20,0.188,0.174,0.285,0.266,0.266,0.145,0.092,�k,7.0,�L
2019/06/10,15:30,0.189,0.175,0.284,0.267,0.269,0.145,0.092,�k,8.4,�L
2019/06/10,15:40,0.188,0.175,0.283,0.265,0.266,0.145,0.092,�k,8.5,�L
2019/06/10,15:50,0.189,0.175,0.284,0.265,0.268,0.146,0.093,�k,8.4,�L
2019/06/10,16:00,0.188,0.174,0.282,0.265,0.267,0.144,0.092,�k,7.7,�L
2019/06/10,16:10,0.189,0.175,0.284,0.266,0.267,0.145,0.092,�k,7.0,�L
2019/06/10,16:20,0.189,0.175,0.284,0.266,0.267,0.145,0.094,�k,6.7,�L
2019/06/10,16:30,0.187,0.175,0.283,0.265,0.266,0.144,0.092,�k,8.1,�L
2019/06/10,16:40,0.188,0.175,0.284,0.266,0.268,0.143,0.092,�k,7.5,�L
2019/06/10,16:50,0.188,0.173,0.282,0.264,0.266,0.142,0.090,�k,7.3,��
2019/06/10,17:00,0.188,0.173,0.284,0.266,0.267,0.143,0.090,�k,7.7,��
2019/06/10,17:10,0.187,0.173,0.281,0.264,0.265,0.142,0.089,�k,6.4,�L
2019/06/10,17:20,0.186,0.172,0.282,0.264,0.267,0.142,0.089,�k,7.0,�L
2019/06/10,17:30,0.187,0.173,0.283,0.266,0.266,0.142,0.090,�k,7.4,�L
2019/06/10,17:40,0.187,0.172,0.283,0.265,0.266,0.143,0.090,�k,7.3,�L
2019/06/10,17:50,0.188,0.174,0.284,0.266,0.267,0.143,0.091,�k,8.4,�L
2019/06/10,18:00,0.188,0.173,0.284,0.264,0.266,0.144,0.091,�k,8.2,�L
2019/06/10,18:10,0.189,0.175,0.283,0.264,0.268,0.144,0.091,�k,9.0,�L
2019/06/10,18:20,0.188,0.174,0.283,0.265,0.266,0.145,0.092,�k,7.3,�L
2019/06/10,18:30,0.188,0.175,0.282,0.266,0.269,0.145,0.092,�k,6.7,�L
2019/06/10,18:40,0.189,0.176,0.284,0.266,0.266,0.144,0.092,�k,8.1,�L
2019/06/10,18:50,0.189,0.176,0.283,0.266,0.269,0.146,0.093,�k�k��,6.8,�L
2019/06/10,19:00,0.190,0.176,0.284,0.266,0.269,0.146,0.093,�k,7.6,�L
2019/06/10,19:10,0.188,0.177,0.282,0.265,0.267,0.145,0.093,�k,6.8,�L
2019/06/10,19:20,0.189,0.176,0.283,0.265,0.269,0.146,0.093,�k,8.2,�L
2019/06/10,19:30,0.188,0.177,0.284,0.266,0.268,0.145,0.093,�k,8.8,�L
2019/06/10,19:40,0.189,0.176,0.282,0.265,0.268,0.146,0.094,�k,8.2,�L
2019/06/10,19:50,0.189,0.176,0.284,0.265,0.267,0.146,0.093,�k�k��,6.4,�L
2019/06/10,20:00,0.188,0.175,0.284,0.265,0.269,0.145,0.094,�k,7.3,�L
2019/06/10,20:10,0.188,0.176,0.282,0.266,0.267,0.145,0.093,�k,8.2,�L
2019/06/10,20:20,0.187,0.176,0.284,0.265,0.267,0.145,0.093,�k,8.1,�L
2019/06/10,20:30,0.188,0.175,0.281,0.265,0.268,0.145,0.094,�k�k��,7.8,�L
2019/06/10,20:40,0.187,0.175,0.283,0.265,0.266,0.144,0.092,�k�k��,8.1,�L
2019/06/10,20:50,0.187,0.177,0.281,0.264,0.269,0.145,0.092,�k�k��,7.3,�L
2019/06/10,21:00,0.187,0.174,0.283,0.265,0.266,0.143,0.092,�k�k��,8.4,�L
2019/06/10,21:10,0.186,0.174,0.282,0.264,0.268,0.143,0.093,�k�k��,7.9,�L
2019/06/10,21:20,0.188,0.174,0.280,0.265,0.266,0.143,0.092,�k�k��,7.9,�L
2019/06/10,21:30,0.187,0.174,0.284,0.264,0.268,0.144,0.091,�k�k��,7.5,�L
2019/06/10,21:40,0.185,0.174,0.280,0.264,0.266,0.143,0.092,�k�k��,7.0,�L
2019/06/10,21:50,0.188,0.174,0.281,0.265,0.267,0.143,0.092,�k�k��,7.1,�L
2019/06/10,22:00,0.186,0.173,0.282,0.264,0.267,0.143,0.092,�k�k��,7.7,�L
2019/06/10,22:10,0.187,0.174,0.280,0.265,0.266,0.143,0.092,�k,8.4,�L
2019/06/10,22:20,0.186,0.174,0.281,0.262,0.266,0.143,0.092,�k�k��,8.7,�L
2019/06/10,22:30,0.188,0.175,0.281,0.265,0.264,0.141,0.092,�k,7.0,�L
2019/06/10,22:40,0.185,0.173,0.282,0.263,0.267,0.142,0.092,�k�k��,7.3,�L
2019/06/10,22:50,0.186,0.173,0.282,0.264,0.266,0.142,0.092,�k�k��,6.6,�L
2019/06/10,23:00,0.187,0.174,0.280,0.264,0.267,0.142,0.092,�k�k��,6.6,�L
2019/06/10,23:10,0.185,0.173,0.280,0.262,0.265,0.143,0.091,�k�k��,7.9,�L
2019/06/10,23:20,0.187,0.174,0.279,0.263,0.266,0.143,0.091,�k�k��,7.8,�L
2019/06/10,23:30,0.185,0.173,0.280,0.262,0.265,0.142,0.091,�k,7.7,�L
2019/06/10,23:40,0.186,0.174,0.281,0.263,0.265,0.142,0.091,�k�k��,8.8,�L
2019/06/10,23:50,0.186,0.172,0.280,0.263,0.267,0.141,0.091,�k,9.0,�L
